Date,TemperatureHighF,TemperatureAvgF,TemperatureLowF,DewpointHighF,DewpointAvgF,DewpointLowF,HumidityHigh,HumidityAvg,HumidityLow,PressureMaxIn,PressureMinIn,WindSpeedMaxMPH,WindSpeedAvgMPH,GustSpeedMaxMPH,PrecipitationSumIn
2013-9-1,72.0,62.7,55.0,69.0,60.9,52.0,98,94,88,29.80,29.60,12,3,14,1.02
2013-9-2,59.0,56.0,54.0,54.0,50.8,49.0,89,83,76,29.94,29.80,11,4,18,0.01
2013-9-3,69.0,61.0,57.0,59.0,56.2,48.0,95,85,48,29.97,29.83,8,2,12,0.01
2013-9-4,64.0,57.7,55.0,59.0,51.4,45.0,93,80,67,30.15,29.83,22,4,25,0.01
2013-9-5,64.0,55.7,42.0,51.0,47.4,41.0,97,75,50,30.29,30.16,10,3,12,0.01
2013-9-6,75.0,63.0,56.0,65.0,56.8,48.0,94,80,68,30.14,29.84,10,4,18,0.08
2013-9-7,71.0,65.0,60.0,68.0,62.9,57.0,98,93,85,30.04,29.78,8,2,15,0.04
2013-9-8,66.0,56.4,47.0,58.0,51.1,-99.9,99,86,67,30.15,29.99,9,1,9,0.02
2013-9-9,68.0,62.1,49.0,67.0,60.3,48.0,98,94,88,29.99,29.65,8,1,15,0.01
2013-9-10,81.0,68.7,62.0,72.0,66.8,61.0,99,95,73,29.85,29.65,3,0,7,0.22
2013-9-11,75.0,66.1,60.0,67.0,63.5,59.0,99,92,72,29.90,29.82,7,1,10,0.25
2013-9-12,61.0,56.5,53.0,60.0,52.5,46.0,98,86,77,30.11,29.87,13,4,25,0.01
2013-9-13,53.0,49.5,40.0,46.0,42.7,39.0,96,78,70,30.22,30.11,22,7,23,0.01
2013-9-14,70.0,55.7,40.0,54.0,47.4,39.0,97,76,51,30.11,29.89,8,3,12,0.00
2013-9-15,61.0,53.8,50.0,55.0,48.0,-99.9,97,85,71,30.23,29.88,17,4,21,0.40
2013-9-16,54.0,51.1,41.0,46.0,42.1,38.0,91,72,62,30.42,30.23,14,5,23,0.01
2013-9-17,66.0,58.6,46.0,52.0,49.8,45.0,98,73,59,30.33,30.09,10,4,16,0.01
2013-9-18,58.0,53.8,51.0,56.0,51.7,49.0,96,92,88,30.09,29.97,4,1,9,0.01
2013-9-19,76.0,68.1,63.0,70.0,66.0,62.0,98,93,82,29.85,29.63,8,3,16,0.06
2013-9-20,68.0,63.4,56.0,67.0,62.2,54.0,99,96,90,29.69,29.56,10,1,15,0.54
2013-9-21,56.0,51.3,47.0,54.0,45.6,41.0,93,81,72,29.92,29.70,13,3,17,0.13
2013-9-22,51.0,47.5,39.0,44.0,39.5,-99.9,94,77,69,30.09,29.92,17,5,18,0.01
2013-9-23,61.0,47.5,35.0,49.0,42.4,34.0,97,84,62,30.15,30.09,7,1,15,0.00
2013-9-24,68.0,52.1,38.0,55.0,47.5,37.0,99,86,61,30.11,29.99,5,1,11,0.01
2013-9-25,66.0,52.8,40.0,58.0,49.6,39.0,99,90,69,30.02,29.97,3,0,7,0.01
2013-9-26,74.0,53.8,38.0,57.0,48.1,37.0,99,84,47,30.08,29.99,3,1,10,0.02
2013-9-27,77.0,62.0,49.0,60.0,52.7,48.0,98,74,43,30.11,30.02,7,2,15,0.01
2013-9-28,73.0,65.5,58.0,61.0,56.3,50.0,95,73,60,30.03,29.69,12,4,27,0.35
2013-9-29,70.0,56.4,46.0,60.0,49.3,-99.9,98,82,47,29.96,29.77,5,1,11,0.20
2013-9-30,69.0,59.4,53.0,55.0,50.9,48.0,92,75,48,29.93,29.69,13,5,23,0.01